Regional Weather Roundup
Issued by NWS

Home | Current Version | Previous Version | Graphics & Text | Print | Product List | Glossary On
Versions: 1 2 3 4 5 6 7 8 9 10 11 12 13 14 15 16 17 18 19 20 21 22 23 24 25 26 27
000
ASUS45 KBOU 200307
RWRCO

WEATHER ROUNDUP FOR COLORADO
NATIONAL WEATHER SERVICE DENVER/BOULDER CO
900 PM MDT WED JUL 19 2017

NOTE: "FAIR" INDICATES FEW OR NO CLOUDS BELOW 12000 FEET WITH NO
SIGNIFICANT WEATHER AND/OR OBSTRUCTIONS TO VISIBILITY.

COZ001>005-013-030-031-200400-
...NORTHWEST COLORADO...

CITY           SKY/WX    TMP DP  RH WIND       PRES   REMARKS
CRAIG          LGT RAIN  67  54  63 E8        30.32R
HAYDEN         CLOUDY    63  52  67 NW5       30.35R
MEEKER         LGT RAIN  64  57  78 E3        30.37R
RABBIT EARS PA CLOUDY    54  45  71 W7        30.64R
STEAMBOAT SPGS CLOUDY    64  55  72 NW5       30.37R
WALDEN         CLOUDY    59  52  77 W6        30.45R
$$

COZ006>008-011-200400-
...WEST CENTRAL VALLEYS...

CITY           SKY/WX    TMP DP  RH WIND       PRES   REMARKS
GRAND JUNCTION FAIR      78  58  49 NE26G32   30.07R
MONTROSE       FAIR      76  52  43 S3        30.18R
EAGLE          LGT RAIN  71  55  56 NW7       30.34R
RIFLE          FAIR      69  59  70 W13G21    30.24R
DELTA          FAIR      83  55  38 E5        30.12R
NUCLA          FAIR      73  55  53 E9        30.21
$$

COZ017>023-064>068-200400-
...SOUTHWEST COLORADO...

CITY           SKY/WX    TMP DP  RH WIND       PRES   REMARKS
DURANGO        FAIR      77  44  30 SW6       30.24R
CORTEZ         FAIR      82  49  31 NW7       30.16R
PAGOSA SPRINGS FAIR      71  46  41 NE3       30.35R THUNDER
TELLURIDE      FAIR      65  55  68 CALM      30.49R
WOLF CREEK PAS FAIR      54  43  66 S12G20    30.75S
$$

COZ009-010-012-014-032>034-037-058>063-200400-
...CENTRAL COLORADO...

CITY           SKY/WX    TMP DP  RH WIND       PRES   REMARKS
ASPEN          FAIR      60  55  83 SE7       30.38F
BUENA VISTA    FAIR      62  50  64 NW15G22   30.41R
COPPER MTN     RAIN      52  45  76 S31G38    30.73F
BERTHOUD PASS  MOCLDY    48  34  57 W12       30.76S
COTTONWOOD PAS FAIR      59  45  58 W7        30.55R
GUNNISON       FAIR      67  53  61 NE8       30.37R
KREMMLING      CLOUDY    66  57  72 CALM      30.40R
LEADVILLE      LGT RAIN  51  49  92 NE10      30.58F
MONARCH PASS   CLOUDY    54  36  50 W17       30.81R
SALIDA         FAIR      70  48  46 NW6       30.43S
SUNLIGHT       FAIR      50  46  87 N5        30.65F
WILKERSON PASS FAIR      52  43  71 W6        30.69S
$$

COZ069>075-200400-
...SAN LUIS VALLEY/SANGRE DE CRISTO MOUNTAINS...

CITY           SKY/WX    TMP DP  RH WIND       PRES   REMARKS
ALAMOSA        MOCLDY    73  50  44 N14G24    30.31R
DEL NORTE      FAIR      67  53  60 W7        30.36R
LA VETA PASS   NOT AVBL
SAGUACHE         N/A    N/A N/A N/A MISG        N/A
$$

COZ035-036-038>040-200400-
...NORTHERN COLORADO FRONT RANGE...

CITY           SKY/WX    TMP DP  RH WIND       PRES   REMARKS
DENVER INTL AP MOCLDY    82  46  28 W8        30.12S
DMNS CITY PARK   N/A     78  47  34 W5G12     30.12S
AURORA         NOT AVBL
FRONT RANGE AP FAIR      82  45  26 S7        30.14R
ERIE MUNI ARPT FAIR      81  44  27 CALM      30.13R
BOULDER MUN AP FAIR      81  45  28 SW3       30.13R
CENTENNIAL     MOCLDY    71  56  58 SW16      30.18S
BROOMFIELD     MOCLDY    79  46  31 SW9       30.16S
FORT COLLINS   FAIR      82  51  34 N16       30.13R
LONGMONT       FAIR      82  47  28 E5        30.14R
$$

COZ041-046-047-076>085-087-088-200400-
...PIKES PEAK/PALMER DIVIDE AND SOUTHERN FOOTHILLS...

CITY           SKY/WX    TMP DP  RH WIND       PRES   REMARKS
COLO. SPRINGS  TSTM      69  58  67 W22       30.25R
A. F. ACADEMY  TSTM      72  48  43 SW20G25   30.29R
SCHRIEVER AFB  NOT AVBL
CHEYENNE MTN   NOT AVBL
ELLICOTT       MOCLDY   N/A N/A N/A N13       30.22R THUNDER
FALCON           N/A     72  45  37 W29G44    30.31R
FORT CARSON    MOCLDY    72  54  53 N16       30.17F THUNDER
LIMON          FAIR      79  52  38 W10       30.14R
MONUMENT HILL  FAIR      68  48  49 SW13G18   30.32R
CANON CITY     MOCLDY    75  61  60 W13       30.15R
WALSENBURG     FAIR      82  48  30 SW7       30.18R
TRINIDAD       FAIR      84  42  22 S17G30    30.15R
$$

COZ042>045-048>051-090-091-200400-
...NORTHEAST COLORADO...

CITY           SKY/WX    TMP DP  RH WIND       PRES   REMARKS
GREELEY ARPT   FAIR      80  54  40 NW13      30.10R
AKRON          FAIR      85  49  28 W16       30.06R
BURLINGTON     FAIR      76  58  53 S10       30.04R
WRAY           NOT AVBL
YUMA           FAIR      77  61  57 S8        30.00R
STERLING       FAIR      84  57  39 N12       29.99R
HOLYOKE        FAIR      81  63  54 S9        29.97R
FORT MORGAN    FAIR      80  50  34 SW15      30.05R
$$

COZ086-089-092>099-200400-
...SOUTHEAST COLORADO...

CITY           SKY/WX    TMP DP  RH WIND       PRES   REMARKS
PUEBLO         FAIR      87  49  26 N21G26    30.04R
LA JUNTA       FAIR      88  52  29 S14       30.02R
LAMAR          FAIR      85  50  29 S13       29.98R
SPRINGFIELD      N/A     78  52  40 S14       30.10R
$$




USA.gov is the U.S. government's official web portal to all federal, state and local government web resources and services.